Sacramento, CA

2:45 AM PST on November 19, 2017 (GMT -0800)
Sacramento Executive

Weather History for KSAC - January, 2013

Change the Weather History Date:

Sunday, January 13, 2013

  Actual Average Record
Temperature  
Mean Temperature 35 °F -  
Max Temperature 45 °F 53 °F 66 °F (2009)
Min Temperature 24 °F 39 °F 22 °F (1949)
Degree Days  
Heating Degree Days 30    
Cooling Degree Days 0    
Moisture  
Dew Point 24 °F    
Average Humidity 65    
Maximum Humidity 92    
Minimum Humidity 37    
Precipitation  
Precipitation 0.00 in 0.13 in 2.13 in (1993)
Month to date precipitation 0.78 1.53  
Year to date precipitation 0.78 1.53  
Since 1 July precipitation 12.07  
Sea Level Pressure  
Sea Level Pressure 30.23 in    
Wind  
Wind Speed 3 mph (NW)    
Max Wind Speed 16 mph    
Max Gust Speed 21 mph    
Visibility 10 miles    
Events      
T = Trace of Precipitation, MM = Missing Value Source: NWS Daily Summary

Daily Weather History Graph

Daily Weather History Graph

Search for Another Location

Airport or City:

Trip Planner

Search our weather history database for the weather conditions in past years. The results will help you decide how hot, cold, wet, or windy it might be!

Date:

Astronomy

Jan. 13, 2013 Rise Set
Actual Time 7:22 AM PST 5:07 PM PST
Civil Twilight 6:53 AM PST 5:36 PM PST
Nautical Twilight 6:20 AM PST 6:09 PM PST
Astronomical Twilight 5:48 AM PST 6:41 PM PST
Moon 8:26 AM PST (1/13) 7:49 PM PST (1/13)
Length of Visible Light 10h 43m
Length of Day
9h 44m
Waxing Crescent, 6% of the Moon is Illuminated
Jan 13
Waxing Crescent
Jan 18
First Quarter
Jan 26
Full
Feb 3
Last Quarter
Feb 9
New

Hourly Weather History & Observations

Time (PST) Temp. Windchill Dew Point Humidity Pressure Visibility Wind Dir Wind Speed Gust Speed Precip Events Conditions
12:53 AM 30.0 °F - 24.1 °F 79% 30.22 in 10.0 mi Calm Calm - N/A   Clear
1:53 AM 30.0 °F - 24.1 °F 79% 30.23 in 10.0 mi Calm Calm - N/A   Clear
2:53 AM 27.0 °F - 24.1 °F 89% 30.23 in 10.0 mi Calm Calm - N/A   Clear
3:53 AM 26.1 °F - 23.0 °F 88% 30.22 in 9.0 mi Calm Calm - N/A   Clear
4:53 AM 27.0 °F - 23.0 °F 85% 30.24 in 10.0 mi Calm Calm - N/A   Clear
5:53 AM 25.0 °F - 21.9 °F 88% 30.24 in 10.0 mi Calm Calm - N/A   Clear
6:53 AM 24.1 °F - 21.0 °F 88% 30.27 in 10.0 mi Calm Calm - N/A   Clear
7:53 AM 25.0 °F - 21.9 °F 88% 30.27 in 10.0 mi Calm Calm - N/A   Clear
8:53 AM 33.1 °F - 28.0 °F 82% 30.28 in 10.0 mi Calm Calm - N/A   Clear
9:53 AM 36.0 °F - 27.0 °F 70% 30.28 in 10.0 mi Calm Calm - N/A   Clear
10:53 AM 39.0 °F 34.8 °F 28.0 °F 65% 30.28 in 10.0 mi NNW 5.8 mph - N/A   Clear
11:53 AM 39.9 °F 36.7 °F 27.0 °F 60% 30.24 in 10.0 mi WNW 4.6 mph - N/A   Clear
12:53 PM 42.1 °F 38.4 °F 27.0 °F 55% 30.22 in 10.0 mi NW 5.8 mph - N/A   Clear
1:53 PM 44.1 °F 39.0 °F 26.1 °F 49% 30.21 in 10.0 mi WNW 9.2 mph - N/A   Clear
2:53 PM 45.0 °F 40.1 °F 24.1 °F 44% 30.20 in 10.0 mi NW 9.2 mph - N/A   Clear
3:53 PM 45.0 °F 39.7 °F 19.9 °F 37% 30.20 in 10.0 mi NNW 10.4 mph - N/A   Clear
4:53 PM 42.1 °F 37.7 °F 23.0 °F 47% 30.19 in 10.0 mi NNW 6.9 mph - N/A   Clear
5:53 PM 39.0 °F 34.8 °F 24.1 °F 55% 30.19 in 10.0 mi NNW 5.8 mph - N/A   Clear
6:53 PM 39.0 °F 32.8 °F 24.1 °F 55% 30.19 in 10.0 mi NW 9.2 mph - N/A   Clear
7:53 PM 39.0 °F 31.8 °F 23.0 °F 53% 30.20 in 10.0 mi NNW 11.5 mph - N/A   Clear
8:53 PM 37.9 °F 31.5 °F 21.0 °F 51% 30.20 in 10.0 mi NNW 9.2 mph - N/A   Clear
9:53 PM 37.0 °F 30.4 °F 21.0 °F 52% 30.21 in 10.0 mi NW 9.2 mph - N/A   Clear
10:53 PM 36.0 °F 27.5 °F 21.0 °F 55% 30.22 in 10.0 mi NW 12.7 mph - N/A   Clear
11:53 PM 35.1 °F 26.9 °F 21.0 °F 57% 30.22 in 10.0 mi NW 11.5 mph - N/A   Clear